YAMAL 202

Last updated on Mon Oct 14 2024 00:02:37 GMT+0000 (Coordinated Universal Time)

1 28089U 03053A 24287.58219936 -.00000077 00000+0 00000+0 0 9997 2 28089 4.7885 78.3077 0006014 133.5901 183.8371 1.00271702 76561
UTC large
Height (km)
Speed (km/s)
/
Latitude / Longitude
Inclination (degrees)
Orbital Period (minutes)
Azimuth
Elevation
Range (km)
Doppler Factor

Next 0 passes for location: London (51.5072 / 0.1276)

Sorry there are no passes over London.